Phoenix Deer Valley, AZ

6:50 PM MST on October 13, 2019 (GMT -0700)
Phoenix-Deer Valley Municipal

Weather History for KDVT - July, 2019

Change the Weather History Date:

Wednesday, July 31, 2019

  Actual Average Record
Temperature  
Mean Temperature 83 °F -  
Max Temperature 91 °F 100 °F 109 °F (1996)
Min Temperature 75 °F 81 °F 71 °F (2005)
Cooling Degree Days 18    
Growing Degree Days 33 (Base 50)    
Moisture  
Dew Point 68 °F    
Average Humidity 55    
Maximum Humidity 87    
Minimum Humidity 41    
Precipitation  
Precipitation 0.10 in - - ()
Sea Level Pressure  
Sea Level Pressure 29.94 in    
Wind  
Wind Speed 4 mph (SSE)    
Max Wind Speed 8 mph    
Max Gust Speed -    
Visibility 10 miles    
Events Rain    
Averages and records for this station are not official NWS values.
T = Trace of Precipitation, MM = Missing Value Source: NWS Daily Summary

Daily Weather History Graph

Daily Weather History Graph

Search for Another Location

Airport or City:

Astronomy

Jul. 31, 2019 Rise Set
Actual Time 5:39 AM MST 7:29 PM MST
Civil Twilight 5:12 AM MST 7:56 PM MST
Nautical Twilight 4:39 AM MST 8:29 PM MST
Astronomical Twilight 4:04 AM MST 9:04 PM MST
Moon 5:00 AM MST (7/31) 7:30 PM MST (7/31)
Length of Visible Light 14h 44m
Length of Day
13h 49m
Waning Crescent, 0% of the Moon is Illuminated
Jul 31
Waning Crescent
Jul 31
New
Aug 7
First Quarter
Aug 15
Full
Aug 23
Last Quarter

Hourly Weather History & Observations

Time (MST) Temp. Heat Index Dew Point Humidity Pressure Visibility Wind Dir Wind Speed Gust Speed Precip Events Conditions
12:53 AM 75.9 °F - 72.0 °F 87% 29.89 in 8.0 mi NNE 6.9 mph - 0.10 in Rain Light Rain
1:53 AM - - - N/A% 29.95 in - North - - 0.00 in   Unknown
2:53 AM - - - N/A% 29.94 in - North - - N/A   Unknown
3:53 AM - - - N/A% 29.95 in - North - - N/A   Unknown
4:53 AM - - - N/A% 29.97 in - North - - N/A   Unknown
5:53 AM - - - N/A% 30.00 in - North - - N/A   Unknown
6:53 AM 78.8 °F - 71.6 °F 78% 30.02 in 10.0 mi East 4.6 mph - N/A   Clear
7:53 AM 79.0 °F - 72.0 °F 79% 29.96 in 10.0 mi East 3.5 mph - N/A   Clear
8:53 AM 81.0 °F 84.9 °F 71.1 °F 72% 29.96 in 10.0 mi East 5.8 mph - N/A   Clear
9:53 AM 82.9 °F 87.0 °F 70.0 °F 65% 29.97 in 10.0 mi East 4.6 mph - N/A   Mostly Cloudy
10:53 AM 84.0 °F 88.4 °F 70.0 °F 63% 29.98 in 10.0 mi Calm Calm - N/A   Mostly Cloudy
11:53 AM 87.1 °F 90.6 °F 68.0 °F 53% 29.96 in 10.0 mi Calm Calm - N/A   Partly Cloudy
12:53 PM 88.0 °F 90.3 °F 66.0 °F 48% 29.94 in 10.0 mi SW 4.6 mph - N/A   Clear
1:53 PM 89.1 °F 92.1 °F 66.9 °F 48% 29.97 in 10.0 mi SW 8.1 mph - N/A   Clear
2:53 PM 90.0 °F 92.4 °F 66.0 °F 45% 29.95 in 10.0 mi Variable 3.5 mph - N/A   Clear
3:53 PM 91.9 °F 94.5 °F 66.0 °F 42% 29.93 in 10.0 mi Variable 4.6 mph - N/A   Clear
4:53 PM 91.0 °F 92.6 °F 64.0 °F 41% 29.93 in 10.0 mi WSW 3.5 mph - N/A   Clear
5:53 PM 91.0 °F 93.0 °F 64.9 °F 42% 29.92 in 10.0 mi SSW 3.5 mph - N/A   Clear
6:53 PM 91.0 °F 93.0 °F 64.9 °F 42% 29.92 in 10.0 mi Variable 4.6 mph - N/A   Clear
7:53 PM 91.0 °F 93.0 °F 64.9 °F 42% 29.85 in 10.0 mi SSE 3.5 mph - N/A   Clear
8:53 PM 90.0 °F 91.7 °F 64.9 °F 43% 29.87 in 10.0 mi SSW 3.5 mph - N/A   Clear
9:53 PM 89.1 °F 92.1 °F 66.9 °F 48% 29.87 in 10.0 mi Calm Calm - N/A   Clear
10:53 PM 88.0 °F 91.4 °F 68.0 °F 51% 29.88 in 10.0 mi Calm Calm - N/A   Clear
11:53 PM 86.0 °F 90.7 °F 70.0 °F 59% 29.88 in 10.0 mi Calm Calm - N/A   Clear